FW4096 Weather Reports


time (UTC)temp
C
wind
direction
speed
KPH
gust
KPH
rain 1hr
cm
rain 24hr
cm
rain mn
cm
humidity
%
barometer
mb
20260906052006 11 352 14.5 22.5 0.00 0.00 0.00 84 1007.4
20260906051504 11 358 14.5 24.1 0.00 0.00 0.00 84 1007.3
20260906051004 11 1 14.5 24.1 0.00 0.00 0.00 85 1007.2
20260906050504 11 359 14.5 24.1 0.00 0.00 0.00 85 1007.0
20260906050004 11 359 14.5 24.1 0.00 0.00 0.00 85 1007.1
20260906045504 11 359 16.1 22.5 0.00 0.00 0.00 85 1006.9
20260906045004 11 358 16.1 25.7 0.00 0.00 0.00 85 1006.9
20260906044607 11 356 16.1 25.7 0.00 0.00 0.00 85 1006.9
20260906044004 11 353 19.3 29.0 0.00 0.00 0.00 85 1006.8
20260906043504 11 354 20.9 32.2 0.00 0.00 0.00 85 1006.8
20260906043004 11 356 17.7 32.2 0.00 0.00 0.00 85 1006.6
20260906042504 10 356 16.1 20.9 0.00 0.00 0.00 85 1006.4
20260906042004 10 356 16.1 25.7 0.00 0.00 0.00 85 1006.3
20260906041503 10 358 16.1 25.7 0.00 0.00 0.00 85 1006.3
20260906041004 10 359 14.5 22.5 0.00 0.00 0.00 85 1006.3
20260906040503 10 359 14.5 30.6 0.00 0.00 0.00 85 1006.3
20260906040004 10 359 17.7 30.6 0.00 0.00 0.00 85 1006.2
20260906035607 10 359 19.3 29.0 0.00 0.00 0.00 84 1006.2
20260906035003 11 357 17.7 25.7 0.00 0.00 0.00 84 1006.1
20260906034504 11 357 19.3 29.0 0.00 0.00 0.00 84 1006.0
20260906034006 11 358 19.3 29.0 0.00 0.00 0.00 84 1005.9
20260906033503 11 1 16.1 29.0 0.00 0.00 0.00 84 1005.9
20260906033106 11 3 14.5 22.5 0.00 0.00 0.00 85 1005.8
20260906032503 11 360 14.5 22.5 0.00 0.00 0.00 84 1005.7
20260906032003 11 357 16.1 25.7 0.00 0.00 0.00 84 1005.7
20260906031503 11 358 19.3 32.2 0.00 0.00 0.00 84 1005.5
20260906031106 11 360 19.3 32.2 0.00 0.00 0.00 84 1005.6
20260906030503 11 1 16.1 30.6 0.00 0.00 0.00 84 1005.4
20260906030004 11 1 14.5 24.1 0.00 0.00 0.00 84 1005.2
20260906025503 11 2 16.1 27.4 0.00 0.00 0.00 84 1005.2
20260906025107 11 359 17.7 32.2 0.00 0.00 0.00 84 1005.2
20260906024503 11 355 16.1 32.2 0.00 0.00 0.00 84 1005.0
20260906024003 11 355 16.1 25.7 0.00 0.00 0.00 84 1005.0
20260906023606 11 358 17.7 25.7 0.00 0.00 0.00 84 1004.9
20260906023003 11 1 19.3 29.0 0.00 0.00 0.00 84 1004.9
20260906022503 12 359 19.3 29.0 0.00 0.00 0.00 85 1004.8
20260906022003 12 359 16.1 27.4 0.00 0.00 0.00 85 1004.8
20260906021503 12 1 16.1 24.1 0.00 0.00 0.00 84 1004.7
20260906021003 12 359 17.7 25.7 0.00 0.00 0.00 84 1004.6
20260906020607 12 357 17.7 27.4 0.00 0.00 0.00 84 1004.6
20260906020004 12 354 19.3 27.4 0.00 0.00 0.00 83 1004.4
20260906015506 12 352 17.7 27.4 0.00 0.00 0.00 83 1004.4
20260906015004 12 355 16.1 24.1 0.00 0.00 0.00 85 1004.3
20260906014504 12 357 17.7 27.4 0.00 0.00 0.00 85 1004.2
20260906014004 12 356 17.7 27.4 0.00 0.00 0.00 85 1004.1
20260906013504 13 357 14.5 27.4 0.00 0.00 0.00 86 1004.1
20260906013107 13 357 16.1 27.4 0.00 0.00 0.00 86 1003.9
20260906012504 13 354 19.3 27.4 0.00 0.00 0.00 86 1003.9
20260906012004 13 355 19.3 29.0 0.00 0.00 0.00 86 1003.8
20260906011504 13 353 19.3 29.0 0.00 0.00 0.00 86 1003.7
20260906011004 13 352 16.1 25.7 0.00 0.00 0.00 87 1003.5
20260906010607 13 355 14.5 24.1 0.00 0.00 0.00 87 1003.5
20260906010004 13 357 12.9 20.9 0.00 0.00 0.00 87 1003.4
20260906005505 13 357 12.9 20.9 0.00 0.00 0.00 87 1003.4
20260906005004 13 357 11.3 16.1 0.00 0.00 0.00 87 1003.3
20260906004607 13 360 11.3 16.1 0.00 0.00 0.00 87 1003.2
20260906004004 13 1 8.0 14.5 0.00 0.00 0.00 87 1003.1
20260906003503 13 360 8.0 12.9 0.00 0.00 0.00 87 1003.1
20260906003004 13 1 6.4 12.9 0.00 0.00 0.00 86 1002.9
20260906002503 13 3 6.4 12.9 0.00 0.00 0.00 86 1002.9
20260906002003 13 5 6.4 12.9 0.00 0.00 0.00 86 1003.0
20260906001506 13 8 6.4 11.3 0.00 0.00 0.00 85 1002.9
20260906001004 13 10 6.4 11.3 0.00 0.00 0.00 85 1002.8
20260906000503 13 9 6.4 11.3 0.00 0.00 0.00 85 1002.8
20260906000003 13 8 6.4 12.9 0.00 0.00 0.00 85 1002.8
20260905235503 13 9 6.4 12.9 0.00 0.00 0.00 85 1002.7
20260905235003 13 11 6.4 11.3 0.00 0.00 0.00 85 1002.6
20260905234503 13 11 6.4 11.3 0.00 0.00 0.00 85 1002.5
20260905234003 13 9 6.4 12.9 0.00 0.00 0.00 85 1002.6
20260905233503 14 12 6.4 12.9 0.00 0.00 0.00 85 1002.5
20260905233003 14 13 4.8 9.7 0.00 0.00 0.00 85 1002.5
20260905232503 14 8 6.4 12.9 0.00 0.00 0.00 85 1002.4
20260905232003 14 7 6.4 12.9 0.00 0.00 0.00 85 1002.4
20260905231503 14 4 8.0 19.3 0.00 0.00 0.00 85 1002.3
20260905231003 15 2 11.3 19.3 0.00 0.00 0.00 85 1002.3
20260905230003 15 356 14.5 22.5 0.00 0.00 0.00 85 1002.2
20260905225503 15 352 16.1 22.5 0.00 0.00 0.00 85 1002.2
20260905225003 15 349 14.5 25.7 0.00 0.00 0.00 84 1002.1
20260905224503 15 349 14.5 25.7 0.00 0.00 0.00 84 1002.2
20260905224003 15 347 16.1 20.9 0.00 0.00 0.00 84 1002.1
20260905223606 15 341 16.1 24.1 0.00 0.00 0.00 85 1002.1
20260905223003 15 339 16.1 24.1 0.00 0.00 0.00 84 1002.1
20260905222505 15 338 16.1 24.1 0.00 0.00 0.00 85 1002.1
20260905222003 15 334 16.1 24.1 0.00 0.00 0.00 84 1002.1
20260905221503 15 335 17.7 24.1 0.00 0.00 0.00 84 1002.1
20260905221004 15 335 16.1 24.1 0.00 0.00 0.00 84 1001.9
20260905220504 15 333 16.1 25.7 0.00 0.00 0.00 84 1001.9
20260905220004 15 332 17.7 25.7 0.00 0.00 0.00 84 1001.8
20260905215607 15 330 17.7 27.4 0.00 0.00 0.00 84 1001.9
20260905215004 15 329 19.3 27.4 0.00 0.00 0.00 84 1001.8
20260905214504 15 328 19.3 27.4 0.00 0.00 0.00 84 1001.7
20260905214004 15 329 19.3 27.4 0.00 0.00 0.00 83 1001.7
20260905213504 15 331 19.3 27.4 0.00 0.00 0.00 83 1001.8
20260905213004 15 331 19.3 30.6 0.00 0.00 0.00 83 1001.8
20260905212504 15 329 19.3 30.6 0.00 0.00 0.00 83 1001.8
20260905212004 15 329 19.3 29.0 0.00 0.00 0.00 83 1001.7
20260905211607 15 329 17.7 24.1 0.00 0.00 0.00 83 1001.7
20260905211004 15 329 16.1 22.5 0.00 0.00 0.00 83 1001.5
20260905210504 15 330 17.7 27.4 0.00 0.00 0.00 82 1001.6
20260905210004 15 330 17.7 27.4 0.00 0.00 0.00 82 1001.6
20260905205504 15 330 16.1 29.0 0.00 0.00 0.00 82 1001.5
20260905205107 15 330 16.1 29.0 0.00 0.00 0.00 82 1001.5
20260905204504 15 329 17.7 27.4 0.00 0.00 0.00 82 1001.4
20260905204006 15 330 17.7 29.0 0.00 0.00 0.00 82 1001.4
20260905203504 15 330 19.3 29.0 0.00 0.00 0.00 82 1001.4
20260905203004 15 328 19.3 30.6 0.00 0.00 0.00 81 1001.5
20260905202504 15 329 20.9 30.6 0.00 0.00 0.00 81 1001.5
20260905202004 15 331 19.3 29.0 0.00 0.00 0.00 82 1001.4
20260905201607 15 330 19.3 29.0 0.00 0.00 0.00 82 1001.4
20260905201004 15 330 17.7 25.7 0.00 0.00 0.00 82 1001.4
20260905200503 15 330 17.7 25.7 0.00 0.00 0.00 82 1001.3
20260905200003 15 330 19.3 30.6 0.00 0.00 0.00 82 1001.3
20260905195503 15 328 20.9 32.2 0.00 0.00 0.00 82 1001.3
20260905195004 15 327 19.3 32.2 0.00 0.00 0.00 82 1001.2
20260905194503 15 328 17.7 27.4 0.00 0.00 0.00 82 1001.2
20260905194003 15 331 19.3 29.0 0.00 0.00 0.00 81 1001.1
20260905193503 15 331 19.3 29.0 0.00 0.00 0.00 81 1001.1
20260905193003 15 332 19.3 27.4 0.00 0.00 0.00 81 1001.1
20260905192503 15 331 19.3 30.6 0.00 0.00 0.00 83 1001.1
20260905192003 15 330 19.3 30.6 0.00 0.00 0.00 83 1001.0
20260905191504 15 329 19.3 30.6 0.00 0.00 0.00 83 1001.0
20260905191003 15 330 19.3 30.6 0.00 0.00 0.00 83 1001.0
20260905190606 15 330 17.7 30.6 0.00 0.00 0.00 83 1001.0
20260905190005 15 330 17.7 30.6 0.00 0.00 0.00 83 1001.0
20260905185503 15 330 19.3 30.6 0.00 0.00 0.00 83 1001.0
20260905185004 15 330 17.7 27.4 0.00 0.00 0.00 83 1000.9
20260905184503 15 329 17.7 25.7 0.00 0.00 0.00 83 1000.9
20260905184106 15 329 16.1 25.7 0.00 0.00 0.00 83 1000.9
20260905183503 15 331 17.7 29.0 0.00 0.00 0.00 83 1000.9
20260905183003 15 332 20.9 29.0 0.00 0.00 0.00 82 1000.9
20260905182503 15 331 20.9 30.6 0.00 0.00 0.00 82 1000.8
20260905182003 15 329 19.3 30.6 0.00 0.00 0.00 82 1000.8
20260905181503 15 329 19.3 29.0 0.00 0.00 0.00 81 1000.8
20260905181003 15 329 19.3 29.0 0.00 0.00 0.00 81 1000.7
20260905180504 15 329 19.3 30.6 0.00 0.00 0.00 80 1000.7
20260905180004 15 331 19.3 30.6 0.00 0.00 0.00 80 1000.6
20260905175607 15 331 19.3 29.0 0.00 0.00 0.00 81 1000.6
20260905175004 15 329 17.7 27.4 0.00 0.00 0.00 79 1000.5
20260905174504 15 328 17.7 29.0 0.00 0.00 0.00 78 1000.5
20260905174003 15 328 19.3 29.0 0.00 0.00 0.00 78 1000.4
20260905173503 15 327 17.7 27.4 0.00 0.00 0.00 78 1000.4
20260905173004 15 324 16.1 24.1 0.00 0.00 0.00 80 1000.4
20260905172504 15 324 14.5 24.1 0.00 0.00 0.00 81 1000.4
20260905172004 15 326 14.5 27.4 0.00 0.00 0.00 80 1000.3
20260905171506 15 329 16.1 30.6 0.00 0.00 0.00 80 1000.2
20260905171004 15 330 16.1 30.6 0.00 0.00 0.00 80 1000.2
20260905170504 15 329 16.1 25.7 0.00 0.00 0.00 80 1000.1
20260905170004 15 328 16.1 24.1 0.00 0.00 0.00 79 1000.0
20260905165504 15 329 14.5 27.4 0.00 0.00 0.00 80 999.9
20260905165004 15 328 14.5 27.4 0.00 0.00 0.00 80 999.9
20260905164503 15 323 14.5 29.0 0.00 0.00 0.00 79 999.9
20260905164107 15 321 14.5 29.0 0.00 0.00 0.00 79 999.8
20260905163503 15 325 12.9 25.7 0.00 0.00 0.00 79 999.9
20260905163107 15 327 14.5 25.7 0.00 0.00 0.00 78 999.8
20260905162607 15 327 12.9 25.7 0.00 0.00 0.00 80 999.7
20260905162107 16 324 12.9 24.1 0.00 0.00 0.00 79 999.7
20260905161504 16 326 12.9 20.9 0.00 0.00 0.00 78 999.7
20260905161003 16 326 11.3 20.9 0.00 0.00 0.00 78 999.6
20260905160503 16 323 11.3 20.9 0.00 0.00 0.00 79 999.6
20260905160004 16 325 12.9 20.9 0.00 0.00 0.00 78 999.5
20260905155504 16 329 12.9 20.9 0.00 0.00 0.00 77 999.5
20260905155003 16 329 12.9 20.9 0.00 0.00 0.00 77 999.5
20260905154504 16 329 14.5 20.9 0.00 0.00 0.00 76 999.4
20260905154003 16 330 16.1 24.1 0.00 0.00 0.00 77 999.3
20260905153503 16 329 17.7 24.1 0.00 0.00 0.00 76 999.3
20260905153106 16 329 16.1 24.1 0.00 0.00 0.00 77 999.3
20260905152503 16 330 14.5 22.5 0.00 0.00 0.00 77 999.3
20260905152003 16 327 14.5 22.5 0.00 0.00 0.00 77 999.4
20260905151503 17 327 14.5 24.1 0.00 0.00 0.00 75 999.3
20260905151003 17 330 14.5 24.1 0.00 0.00 0.00 76 999.3
20260905150503 17 330 16.1 22.5 0.00 0.00 0.00 76 999.3
20260905150003 17 329 16.1 24.1 0.00 0.00 0.00 75 999.3
20260905145503 17 329 16.1 25.7 0.00 0.00 0.00 76 999.2
20260905145106 17 329 16.1 25.7 0.00 0.00 0.00 73 999.2
20260905144503 17 330 14.5 24.1 0.00 0.00 0.00 72 999.1
20260905144003 17 329 14.5 24.1 0.00 0.00 0.00 72 999.0
20260905143503 17 327 12.9 20.9 0.00 0.00 0.00 73 999.0
20260905143003 17 321 12.9 19.3 0.00 0.00 0.00 73 999.0
20260905142503 17 317 11.3 20.9 0.00 0.00 0.00 71 999.0
20260905142106 17 325 12.9 20.9 0.00 0.00 0.00 71 998.9
20260905141503 18 328 12.9 20.9 0.00 0.00 0.00 73 998.9
20260905141004 18 324 12.9 20.9 0.00 0.00 0.00 73 998.8
20260905140504 18 325 12.9 20.9 0.00 0.00 0.00 73 998.7
20260905140004 18 327 14.5 22.5 0.00 0.00 0.00 72 998.7
20260905135504 18 329 14.5 22.5 0.00 0.00 0.00 72 998.7
20260905135107 18 328 12.9 22.5 0.00 0.00 0.00 72 998.7
20260905134504 18 326 9.7 19.3 0.00 0.00 0.00 71 998.6
20260905134004 18 329 11.3 20.9 0.00 0.00 0.00 71 998.6
20260905133504 18 329 12.9 20.9 0.00 0.00 0.00 71 998.6
20260905133004 18 327 12.9 20.9 0.00 0.00 0.00 71 998.4
20260905132504 18 329 12.9 20.9 0.00 0.00 0.00 70 998.5
20260905132004 18 333 12.9 19.3 0.00 0.00 0.00 72 998.4
20260905131504 18 335 12.9 24.1 0.00 0.00 0.00 72 998.4
20260905131004 18 335 14.5 24.1 0.00 0.00 0.00 73 998.4
20260905130607 18 333 14.5 22.5 0.00 0.00 0.00 73 998.3
20260905130004 18 332 14.5 22.5 0.00 0.00 0.00 73 998.3
20260905125504 18 333 14.5 22.5 0.00 0.00 0.00 73 998.3
20260905125004 18 332 14.5 22.5 0.00 0.00 0.00 74 998.4
20260905124504 18 335 14.5 20.9 0.00 0.00 0.00 73 998.2
20260905124004 18 338 14.5 20.9 0.00 0.00 0.00 74 998.3
20260905123607 18 336 14.5 20.9 0.00 0.00 0.00 74 998.1
20260905123004 18 332 14.5 19.3 0.00 0.00 0.00 75 998.3
20260905122503 18 331 12.9 19.3 0.00 0.00 0.00 74 998.2
20260905122107 18 331 14.5 20.9 0.00 0.00 0.00 73 998.3
20260905121504 19 335 14.5 20.9 0.00 0.00 0.00 72 998.1
20260905121003 18 336 12.9 19.3 0.00 0.00 0.00 74 998.1
20260905120503 18 333 14.5 20.9 0.00 0.00 0.00 73 997.8
20260905120004 18 337 14.5 20.9 0.00 0.00 0.00 74 997.8
20260905115504 18 338 14.5 20.9 0.00 0.00 0.00 74 997.8
20260905115107 18 334 14.5 20.9 0.00 0.00 0.00 75 997.8
20260905114503 18 330 11.3 20.9 0.00 0.00 0.00 76 997.7
20260905114003 18 330 11.3 19.3 0.00 0.00 0.00 76 997.7
20260905113503 17 333 12.9 19.3 0.00 0.00 0.00 76 997.7
20260905113003 17 330 11.3 19.3 0.00 0.00 0.00 78 997.8
20260905112606 17 330 11.3 17.7 0.00 0.00 0.00 77 997.7
20260905112003 17 333 11.3 17.7 0.00 0.00 0.00 76 997.6
20260905111606 17 335 9.7 17.7 0.00 0.00 0.00 76 997.5
20260905111003 17 337 11.3 19.3 0.00 0.00 0.00 76 997.4
20260905110503 17 336 11.3 19.3 0.00 0.00 0.00 77 997.4
20260905110003 17 333 11.3 17.7 0.00 0.00 0.00 77 997.3
20260905105606 17 335 11.3 17.7 0.00 0.00 0.00 76 997.3
20260905105107 17 339 9.7 16.1 0.00 0.00 0.00 76 997.2
20260905104503 17 338 9.7 16.1 0.00 0.00 0.00 77 997.1
20260905104003 17 335 11.3 16.1 0.00 0.00 0.00 76 997.1
20260905103503 17 331 9.7 16.1 0.00 0.00 0.00 75 997.0
20260905103003 17 331 9.7 14.5 0.00 0.00 0.00 75 996.9
20260905102503 17 336 11.3 17.7 0.00 0.00 0.00 76 997.0
20260905102003 17 337 12.9 17.7 0.00 0.00 0.00 76 996.9
20260905101504 17 336 12.9 17.7 0.00 0.00 0.00 76 996.8
20260905101004 17 338 9.7 17.7 0.00 0.00 0.00 77 996.8
20260905100505 17 334 8.0 16.1 0.00 0.00 0.00 77 996.6
20260905100106 17 333 9.7 16.1 0.00 0.00 0.00 77 996.8
20260905095504 17 334 11.3 17.7 0.00 0.00 0.00 76 996.7
20260905095004 17 335 11.3 17.7 0.00 0.00 0.00 75 996.7
20260905094504 17 333 11.3 17.7 0.00 0.00 0.00 74 996.6
20260905094004 17 330 12.9 17.7 0.00 0.00 0.00 74 996.6
20260905093504 17 330 14.5 17.7 0.00 0.00 0.00 73 996.4
20260905093004 17 329 12.9 19.3 0.00 0.00 0.00 74 996.4
20260905092504 17 333 11.3 19.3 0.00 0.00 0.00 73 996.2
20260905092107 18 343 9.7 16.1 0.00 0.00 0.00 75 996.3
20260905091504 17 357 6.4 14.5 0.00 0.00 0.00 75 996.2
20260905091004 17 358 6.4 14.5 0.00 0.00 0.00 75 996.2
20260905090607 17 347 8.0 14.5 0.00 0.00 0.00 75 996.2
20260905090004 17 336 11.3 17.7 0.00 0.00 0.00 74 996.1
20260905085503 17 341 9.7 17.7 0.00 0.00 0.00 76 996.1
20260905085004 17 347 9.7 16.1 0.00 0.00 0.00 75 996.0
20260905084504 17 347 9.7 16.1 0.00 0.00 0.00 75 995.9
20260905084107 17 352 8.0 14.5 0.00 0.00 0.00 76 995.7
20260905083503 17 354 8.0 14.5 0.00 0.00 0.00 76 995.7
20260905083003 17 351 8.0 14.5 0.00 0.00 0.00 75 995.7
20260905082503 17 353 8.0 12.9 0.00 0.00 0.00 75 995.8
20260905082107 17 358 9.7 14.5 0.00 0.00 0.00 76 995.8
20260905081503 17 355 9.7 16.1 0.00 0.00 0.00 75 996.0
20260905081003 17 351 9.7 16.1 0.00 0.00 0.00 76 995.8
20260905080606 16 346 9.7 14.5 0.00 0.00 0.00 76 995.9
20260905080003 16 333 6.4 12.9 0.00 0.00 0.00 78 995.7
20260905075606 16 309 4.8 12.9 0.00 0.00 0.00 79 995.8
20260905075003 16 299 3.2 9.7 0.00 0.00 0.00 78 995.8
20260905074503 16 316 3.2 8.0 0.00 0.00 0.00 79 995.7
20260905074003 16 330 3.2 8.0 0.00 0.00 0.00 82 995.7
20260905073503 15 341 1.6 8.0 0.00 0.00 0.00 85 995.7
20260905073003 15 5 3.2 6.4 0.00 0.00 0.00 88 995.6
20260905072503 14 19 1.6 6.4 0.00 0.00 0.00 89 995.6
20260905072003 14 177 0.0 4.8 0.00 0.00 0.00 91 995.6
20260905071503 14 0 0.0 0.0 0.00 0.00 0.00 91 995.6
20260905071003 13 178 0.0 1.6 0.00 0.00 0.00 91 995.5
20260905070607 13 178 0.0 1.6 0.00 0.00 0.00 91 995.4
20260905070003 13 178 0.0 1.6 0.00 0.00 0.00 92 995.3
20260905065505 13 178 0.0 3.2 0.00 0.00 0.00 92 995.3
20260905065003 13 178 0.0 3.2 0.00 0.00 0.00 92 995.3
20260905064503 13 178 0.0 3.2 0.00 0.00 0.00 92 995.3
20260905064106 13 179 1.6 4.8 0.00 0.00 0.00 92 995.2
20260905063503 13 179 1.6 4.8 0.00 0.00 0.00 92 995.1
20260905063003 13 178 0.0 4.8 0.00 0.00 0.00 92 995.2
20260905062503 12 0 0.0 0.0 0.00 0.00 0.00 92 995.1
20260905062004 12 0 0.0 0.0 0.00 0.00 0.00 92 995.1
20260905061504 12 178 0.0 3.2 0.00 0.00 0.00 92 995.0
20260905061004 12 178 1.6 4.8 0.00 0.00 0.00 92 995.0
20260905060504 12 178 3.2 4.8 0.00 0.00 0.00 92 995.0
20260905060004 12 173 3.2 8.0 0.00 0.00 0.00 92 995.1
20260905055504 12 145 3.2 8.0 0.00 0.00 0.00 92 995.0
20260905055004 12 110 1.6 6.4 0.00 0.00 0.00 92 995.0
20260905054504 12 105 0.0 3.2 0.00 0.00 0.00 92 995.0
20260905054004 12 105 1.6 3.2 0.00 0.00 0.00 92 995.0
20260905053504 12 105 1.6 4.8 0.00 0.00 0.00 92 994.9
20260905053004 12 104 1.6 4.8 0.00 0.00 0.00 92 994.9
20260905052504 12 104 0.0 4.8 0.00 0.00 0.00 92 994.9